Weather in Totonicapán

Guatemala     14°54′42″N   91°21′35″W
temp.,
°C
wind,
m/s
gust,
m/s
humid.,
%
clouds,
%
prec.,
mm/h
press.,
hPa
HPBL,
m
28 september, tue
tue2800:00+12s1297100 10.2 101967
03:00+12w1195100 1.1 101826
06:00+12wsw119376 1.2 101811
09:00+18nne117033 0.0 1018638
12:00+19e236983 1.7 10151132
15:00+18ese238374 6.6 1013621
18:00+14se239447 13.1 101574
21:00+13sse119468 1.9 101816
29 september, wed
wed2900:00+12ssw119339 2.4 101811
03:00+12sw119582 0.1 101612
06:00+12ssw119495 0.2 101711
09:00+18ene017057 0.0 1017805
12:00+19e226781 1.1 10141058
15:00+19se227315 1.9 1012783
18:00+13ese229618 3.8 101522
21:00+13sse119632 0.5 101812
30 september, thu
thu3000:00+11sw11959 0.5 101810
03:00+11sw119668 0.0 101611
06:00+11sw1196100 0.0 101713
09:00+17nne21755 0.0 1017727
12:00+22ne33465 0.0 10141768
15:00+21ene444733 0.1 10111797
18:00+13e23908 0.1 101540
21:00+12sse119615 0.0 101811
1 october, fri
fri100:00+11ssw119736 0.0 101811
03:00+10sw11965 0.0 101611
06:00+10wsw11937 0.0 101819
09:00+18nne21585 0.0 1017725
12:00+22ne43435 0.0 10141833
15:00+20ene435362 0.3 10111642
18:00+13e22911 0.6 101525
21:00+11s019714 0.1 101910
2 october, sat
sat200:00+11wsw11978 0.1 101812
03:00+10wsw119556 0.0 101711
06:00+10sw119473 0.0 101810
09:00+17ne2266100 0.0 1018725
12:00+21ne434782 0.1 10141917
15:00+20e445751 0.9 10111638
18:00+13e23936 2.3 101540
21:00+12w119474 1.9 101810